DW9493 Weather Reports


Display with metric or nautical units.
time (UTC)temp
F
wind
direction
speed
MPH
gust
MPH
rain 1hr
in
rain 24hr
in
rain mn
in
humidity
%
barometer
mb
20260905001503 77 314 1.0 5.0 0.00 0.00 0.00 26 1024.0
20260905000023 77 338 0.0 4.0 0.00 0.00 0.00 25 1024.0
20260904235019 77 321 0.0 2.0 0.00 0.00 0.00 25 1024.0
20260904234017 78 32 0.0 4.0 0.00 0.00 0.00 24 1023.9
20260904233015 78 57 0.0 4.0 0.00 0.00 0.00 24 1023.9
20260904232012 78 105 0.0 3.0 0.00 0.00 0.00 25 1023.9
20260904231449 78 32 2.0 9.0 0.00 0.00 0.00 25 1023.7
20260904230010 79 269 2.0 8.0 0.00 0.00 0.00 24 1023.6
20260904225923 79 101 0.0 3.0 0.00 0.00 0.00 24 1023.7
20260904224006 79 93 1.0 6.0 0.00 0.00 0.00 24 1023.7
20260904223006 80 300 0.0 3.0 0.00 0.00 0.00 22 1023.7
20260904222436 79 346 1.0 10.0 0.00 0.00 0.00 23 1023.7
20260904221004 79 4 2.0 8.0 0.00 0.00 0.00 23 1023.7
20260904220006 80 51 2.0 6.0 0.00 0.00 0.00 23 1023.9
20260904214959 80 50 2.0 9.0 0.00 0.00 0.00 23 1023.9
20260904214000 80 46 3.0 8.0 0.00 0.00 0.00 22 1023.7
20260904213000 81 316 2.0 11.0 0.00 0.00 0.00 21 1023.9
20260904211958 81 75 4.0 14.0 0.00 0.00 0.00 22 1023.9
20260904210958 81 109 2.0 7.0 0.00 0.00 0.00 21 1024.0
20260904205958 81 8 3.0 9.0 0.00 0.00 0.00 22 1024.0
20260904204950 80 75 6.0 19.0 0.00 0.00 0.00 22 1024.2
20260904203949 82 23 4.0 11.0 0.00 0.00 0.00 21 1024.2
20260904202949 83 79 3.0 11.0 0.00 0.00 0.00 21 1024.1
20260904201948 82 215 3.0 9.0 0.00 0.00 0.00 21 1024.2
20260904201906 82 136 3.0 10.0 0.00 0.00 0.00 22 1024.5
20260904195949 81 141 3.0 7.0 0.00 0.00 0.00 21 1024.4
20260904195427 83 36 2.0 9.0 0.00 0.00 0.00 21 1024.5
20260904193945 83 110 2.0 8.0 0.00 0.00 0.00 21 1024.5
20260904192944 80 58 2.0 6.0 0.00 0.00 0.00 21 1024.6
20260904191946 80 359 3.0 12.0 0.00 0.00 0.00 21 1024.7
20260904190921 80 110 4.0 14.0 0.00 0.00 0.00 21 1024.9
20260904185921 80 325 2.0 7.0 0.00 0.00 0.00 21 1024.9
20260904184921 80 99 2.0 9.0 0.00 0.00 0.00 21 1025.0
20260904183916 79 112 4.0 10.0 0.00 0.00 0.00 22 1025.0
20260904182916 79 120 4.0 11.0 0.00 0.00 0.00 22 1025.0
20260904181917 79 64 2.0 8.0 0.00 0.00 0.00 23 1025.0
20260904180914 78 148 4.0 10.0 0.00 0.00 0.00 23 1025.1
20260904175851 80 43 2.0 5.0 0.00 0.00 0.00 21 1025.1
20260904174851 81 108 0.0 5.0 0.00 0.00 0.00 20 1025.2
20260904174325 79 120 2.0 6.0 0.00 0.00 0.00 21 1025.4
20260904172838 80 267 1.0 5.0 0.00 0.00 0.00 23 1025.4
20260904171837 78 201 2.0 5.0 0.00 0.00 0.00 22 1025.2
20260904170835 78 338 1.0 4.0 0.00 0.00 0.00 22 1025.4
20260904165833 76 323 1.0 4.0 0.00 0.00 0.00 22 1025.4
20260904164830 77 74 1.0 5.0 0.00 0.00 0.00 22 1025.5
20260904163830 78 22 1.0 5.0 0.00 0.00 0.00 23 1025.5
20260904162832 77 132 1.0 5.0 0.00 0.00 0.00 24 1025.5
20260904161829 76 101 1.0 3.0 0.00 0.00 0.00 25 1025.5
20260904160826 75 206 2.0 5.0 0.00 0.00 0.00 26 1025.5
20260904160301 74 98 2.0 5.0 0.00 0.00 0.00 28 1025.5
20260904154827 75 103 1.0 6.0 0.00 0.00 0.00 27 1025.4
20260904153826 74 142 1.0 6.0 0.00 0.00 0.00 28 1025.2
20260904152826 74 58 0.0 2.0 0.00 0.00 0.00 29 1025.2
20260904151824 73 72 0.0 3.0 0.00 0.00 0.00 30 1025.1
20260904151314 71 137 0.0 3.0 0.00 0.00 0.00 31 1025.1
20260904145821 70 134 0.0 2.0 0.00 0.00 0.00 32 1025.1
20260904145300 68 104 1.0 4.0 0.00 0.00 0.00 35 1025.1
20260904143821 67 106 0.0 3.0 0.00 0.00 0.00 38 1025.1
20260904142820 67 25 0.0 4.0 0.00 0.00 0.00 40 1025.1
20260904141819 66 105 0.0 3.0 0.00 0.00 0.00 41 1025.0
20260904140819 68 65 0.0 1.0 0.00 0.00 0.00 43 1024.9
20260904135817 66 314 0.0 1.0 0.00 0.00 0.00 41 1024.7
20260904134814 62 313 0.0 2.0 0.00 0.00 0.00 41 1024.6
20260904133813 59 314 0.0 2.0 0.00 0.00 0.00 46 1024.5
20260904132812 58 308 0.0 0.0 0.00 0.00 0.00 48 1024.2
20260904131811 56 308 0.0 2.0 0.00 0.00 0.00 49 1024.2
20260904130812 55 297 0.0 2.0 0.00 0.00 0.00 53 1024.2
20260904125812 52 249 0.0 1.0 0.00 0.00 0.00 56 1024.1
20260904124813 52 262 0.0 1.0 0.00 0.00 0.00 55 1024.1
20260904123810 52 263 0.0 1.0 0.00 0.00 0.00 54 1024.0
20260904122812 52 260 0.0 1.0 0.00 0.00 0.00 51 1023.9
20260904121808 51 272 0.0 1.0 0.00 0.00 0.00 53 1023.7
20260904120806 52 262 0.0 1.0 0.00 0.00 0.00 52 1023.7
20260904120242 53 157 0.0 2.0 0.00 0.00 0.00 47 1023.6
20260904114802 53 198 1.0 5.0 0.00 0.00 0.00 50 1023.5
20260904113800 52 248 0.0 2.0 0.00 0.00 0.00 52 1023.5
20260904112800 52 231 0.0 3.0 0.00 0.00 0.00 53 1023.5
20260904111800 53 308 1.0 3.0 0.00 0.00 0.00 49 1023.5
20260904110739 52 256 0.0 4.0 0.00 0.00 0.00 55 1023.5
20260904105737 52 198 1.0 5.0 0.00 0.00 0.00 50 1023.5
20260904105217 52 232 0.0 2.0 0.00 0.00 0.00 54 1023.2
20260904103728 52 242 0.0 1.0 0.00 0.00 0.00 51 1023.2
20260904102726 53 317 0.0 3.0 0.00 0.00 0.00 55 1023.1
20260904102207 53 197 0.0 2.0 0.00 0.00 0.00 50 1023.0
20260904101213 55 319 0.0 1.0 0.00 0.00 0.00 51 1023.1
20260904095724 56 205 0.0 5.0 0.00 0.00 0.00 47 1023.1
20260904094722 57 198 0.0 2.0 0.00 0.00 0.00 45 1023.0
20260904093722 57 201 1.0 4.0 0.00 0.00 0.00 45 1023.0
20260904093156 57 243 1.0 6.0 0.00 0.00 0.00 47 1022.9
20260904091721 57 287 5.0 9.0 0.00 0.00 0.00 45 1022.7
20260904090722 57 313 5.0 10.0 0.00 0.00 0.00 48 1022.7
20260904085708 56 328 0.0 3.0 0.00 0.00 0.00 50 1022.7
20260904084648 54 298 0.0 1.0 0.00 0.00 0.00 54 1022.7
20260904083645 54 271 0.0 1.0 0.00 0.00 0.00 56 1022.7
20260904082643 54 287 0.0 1.0 0.00 0.00 0.00 57 1022.7
20260904082614 54 208 0.0 1.0 0.00 0.00 0.00 55 1022.7
20260904080640 55 310 0.0 2.0 0.00 0.00 0.00 56 1022.9
20260904075640 54 257 0.0 0.0 0.00 0.00 0.00 56 1022.9
20260904074640 54 257 0.0 1.0 0.00 0.00 0.00 57 1023.0
20260904073640 56 257 0.0 1.0 0.00 0.00 0.00 55 1023.0
20260904072632 55 272 0.0 1.0 0.00 0.00 0.00 54 1023.0
20260904071626 54 322 0.0 1.0 0.00 0.00 0.00 58 1023.0
20260904070623 54 304 0.0 1.0 0.00 0.00 0.00 58 1023.1
20260904065621 55 319 0.0 3.0 0.00 0.00 0.00 57 1023.2
20260904064618 55 255 0.0 1.0 0.00 0.00 0.00 56 1023.4
20260904063617 55 253 0.0 1.0 0.00 0.00 0.00 53 1023.4
20260904062616 56 254 0.0 1.0 0.00 0.00 0.00 52 1023.4
20260904061616 56 321 0.0 1.0 0.00 0.00 0.00 56 1023.4
20260904060604 56 321 0.0 1.0 0.00 0.00 0.00 54 1023.5
20260904055601 57 248 0.0 1.0 0.00 0.00 0.00 51 1023.5
20260904054600 58 322 0.0 1.0 0.00 0.00 0.00 51 1023.5
20260904053600 59 109 0.0 1.0 0.00 0.00 0.00 46 1023.4
20260904052600 59 321 0.0 2.0 0.00 0.00 0.00 48 1023.2
20260904052042 61 315 0.0 1.0 0.00 0.00 0.00 45 1023.1
20260904050543 62 315 0.0 1.0 0.00 0.00 0.00 42 1023.1
20260904045539 64 315 0.0 2.0 0.00 0.00 0.00 41 1023.1
20260904044539 66 260 0.0 2.0 0.00 0.00 0.00 36 1023.2
20260904043539 67 282 1.0 5.0 0.00 0.00 0.00 35 1023.2
20260904042533 67 258 2.0 4.0 0.00 0.00 0.00 34 1023.4
20260904041532 67 252 2.0 4.0 0.00 0.00 0.00 34 1023.4
20260904040515 67 240 2.0 4.0 0.00 0.00 0.00 34 1023.4
20260904035511 67 250 1.0 3.0 0.00 0.00 0.00 34 1023.4
20260904034511 67 256 1.0 3.0 0.00 0.00 0.00 35 1023.4
20260904033512 66 252 2.0 4.0 0.00 0.00 0.00 35 1023.4
20260904032511 67 305 1.0 2.0 0.00 0.00 0.00 37 1023.2
20260904031509 65 271 0.0 2.0 0.00 0.00 0.00 38 1023.2
20260904030507 65 266 0.0 3.0 0.00 0.00 0.00 39 1023.2
20260904030441 66 291 0.0 1.0 0.00 0.00 0.00 38 1023.2
20260904024504 67 249 0.0 2.0 0.00 0.00 0.00 36 1023.1
20260904023500 67 319 0.0 1.0 0.00 0.00 0.00 38 1022.9
20260904022501 67 300 1.0 4.0 0.00 0.00 0.00 36 1022.9
20260904021458 68 255 0.0 3.0 0.00 0.00 0.00 35 1022.6
20260904020458 68 290 0.0 3.0 0.00 0.00 0.00 35 1022.5
20260904015457 70 319 1.0 4.0 0.00 0.00 0.00 34 1022.5
20260904014456 70 250 0.0 3.0 0.00 0.00 0.00 31 1022.4
20260904013453 71 273 0.0 2.0 0.00 0.00 0.00 32 1022.4
20260904012452 72 320 1.0 8.0 0.00 0.00 0.00 30 1022.4
20260904011444 73 271 2.0 8.0 0.00 0.00 0.00 29 1022.4
20260904010443 74 329 2.0 9.0 0.00 0.00 0.00 27 1022.2
20260904005442 75 316 4.0 10.0 0.00 0.00 0.00 27 1022.2
20260904004419 75 312 4.0 11.0 0.00 0.00 0.00 27 1022.2
20260904003416 76 248 2.0 9.0 0.00 0.00 0.00 26 1022.2
20260904002904 76 319 4.0 9.0 0.00 0.00 0.00 25 1022.2